• In Hungary
  • List of Countries
  • For 7 days
  • Water Temperature
  • Satellite Maps
  • Weather Map
  • News
  • Weather Widgets
  • user-avatar
    Login

    Hourly Weather Gadelgareevo

    Today, 20 May, Sunday

    Time Temperature Precipitation Wind Pressure Humidity
    00:00 +15°C° 0 mm 2 mps 725 mmHg 80%
    01:00 +14°C° 0 mm 2 mps 725 mmHg 78%
    02:00 +14°C° 0 mm 2 mps 725 mmHg 77%
    03:00 +13°C° 0 mm 2 mps 725 mmHg 76%
    04:00 +13°C° 0 mm 3 mps 724 mmHg 72%
    05:00 +14°C° 0 mm 3 mps 725 mmHg 68%
    06:00 +17°C° 0 mm 4 mps 725 mmHg 64%
    07:00 +18°C° 0 mm 4 mps 725 mmHg 60%
    08:00 +20°C° 0 mm 5 mps 725 mmHg 53%
    09:00 +22°C° 0 mm 5 mps 725 mmHg 45%
    10:00 +24°C° 0 mm 6 mps 725 mmHg 37%
    11:00 +24°C° 0 mm 6 mps 725 mmHg 37%
    12:00 +26°C° 0 mm 6 mps 725 mmHg 36%
    13:00 +26°C° 0 mm 6 mps 725 mmHg 36%
    14:00 +26°C° 0 mm 6 mps 725 mmHg 41%
    15:00 +26°C° 0 mm 6 mps 725 mmHg 45%
    16:00 +25°C° 0 mm 5 mps 725 mmHg 49%
    17:00 +23°C° 0.6 mm 5 mps 725 mmHg 57%
    18:00 +22°C° 0.6 mm 4 mps 725 mmHg 64%
    19:00 +20°C° 0.6 mm 3 mps 725 mmHg 72%
    20:00 +19°C° 0.8 mm 3 mps 725 mmHg 78%
    21:00 +18°C° 0.8 mm 2 mps 725 mmHg 83%
    22:00 +16°C° 0.8 mm 1 mps 726 mmHg 89%
    23:00 +16°C° 0.2 mm 1 mps 726 mmHg 90%

    Tomorrow, 21 May, Monday

    Time Temperature Precipitation Wind Pressure Humidity
    00:00 +15°C° 0.2 mm 1 mps 726 mmHg 91%
    01:00 +15°C° 0.2 mm 1 mps 726 mmHg 92%
    02:00 +14°C° 0 mm 1 mps 726 mmHg 92%
    03:00 +14°C° 0 mm 1 mps 726 mmHg 93%
    04:00 +14°C° 0 mm 1 mps 727 mmHg 93%
    05:00 +15°C° 0 mm 1 mps 727 mmHg 91%
    06:00 +16°C° 0 mm 1 mps 727 mmHg 88%
    07:00 +18°C° 0 mm 1 mps 728 mmHg 85%
    08:00 +19°C° 0.6 mm 1 mps 728 mmHg 82%
    09:00 +19°C° 0.6 mm 2 mps 728 mmHg 79%
    10:00 +20°C° 0.6 mm 2 mps 728 mmHg 75%
    11:00 +20°C° 0.8 mm 2 mps 728 mmHg 76%
    12:00 +20°C° 0.8 mm 2 mps 728 mmHg 77%
    13:00 +20°C° 0.8 mm 2 mps 729 mmHg 78%
    14:00 +19°C° 0.8 mm 2 mps 729 mmHg 79%
    15:00 +19°C° 0.8 mm 2 mps 729 mmHg 81%
    16:00 +18°C° 0.8 mm 2 mps 729 mmHg 83%
    17:00 +17°C° 0.2 mm 2 mps 729 mmHg 84%
    18:00 +17°C° 0.2 mm 2 mps 729 mmHg 86%
    19:00 +16°C° 0.2 mm 2 mps 729 mmHg 88%
    20:00 +15°C° 0 mm 2 mps 729 mmHg 90%
    21:00 +14°C° 0 mm 2 mps 729 mmHg 92%
    22:00 +13°C° 0 mm 2 mps 730 mmHg 94%
    23:00 +12°C° 0.1 mm 2 mps 730 mmHg 94%

    Day after tomorrow, 22 May, Tuesday

    Time Temperature Precipitation Wind Pressure Humidity
    00:00 +12°C° 0.1 mm 2 mps 730 mmHg 94%
    01:00 +10°C° 0.1 mm 2 mps 730 mmHg 94%
    02:00 +10°C° 0 mm 2 mps 731 mmHg 94%
    03:00 +9°C° 0 mm 2 mps 731 mmHg 95%
    04:00 +9°C° 0 mm 2 mps 731 mmHg 95%
    05:00 +10°C° 0 mm 2 mps 731 mmHg 90%
    06:00 +10°C° 0 mm 3 mps 732 mmHg 85%
    07:00 +11°C° 0 mm 3 mps 732 mmHg 80%
    08:00 +13°C° 0 mm 3 mps 732 mmHg 71%
    09:00 +16°C° 0 mm 3 mps 733 mmHg 62%
    10:00 +18°C° 0 mm 4 mps 733 mmHg 52%
    11:00 +19°C° 0 mm 4 mps 733 mmHg 47%
    12:00 +20°C° 0 mm 4 mps 733 mmHg 42%
    13:00 +21°C° 0 mm 3 mps 733 mmHg 37%
    14:00 +21°C° 0 mm 3 mps 733 mmHg 36%
    15:00 +21°C° 0 mm 4 mps 733 mmHg 35%
    16:00 +21°C° 0 mm 4 mps 733 mmHg 34%
    17:00 +20°C° 0 mm 3 mps 733 mmHg 41%
    18:00 +18°C° 0 mm 3 mps 733 mmHg 48%
    19:00 +17°C° 0 mm 3 mps 733 mmHg 55%
    20:00 +15°C° 0 mm 2 mps 733 mmHg 61%
    21:00 +14°C° 0 mm 2 mps 733 mmHg 67%
    22:00 +12°C° 0 mm 2 mps 734 mmHg 74%
    23:00 +12°C° 0 mm 2 mps 734 mmHg 76%

    23 May, Wednesday

    Time Temperature Precipitation Wind Pressure Humidity
    00:00 +10°C° 0 mm 2 mps 734 mmHg 78%
    01:00 +11°C° 0 mm 1 mps 734 mmHg 81%
    02:00 +11°C° 0 mm 1 mps 734 mmHg 82%
    03:00 +10°C° 0 mm 1 mps 734 mmHg 83%
    04:00 +10°C° 0 mm 1 mps 734 mmHg 83%
    05:00 +12°C° 0 mm 1 mps 735 mmHg 76%
    06:00 +14°C° 0 mm 1 mps 735 mmHg 69%
    07:00 +18°C° 0 mm 1 mps 735 mmHg 61%
    08:00 +20°C° 0 mm 1 mps 735 mmHg 55%
    09:00 +22°C° 0 mm 1 mps 736 mmHg 48%
    10:00 +24°C° 0 mm 1 mps 736 mmHg 42%
    11:00 +25°C° 0 mm 1 mps 736 mmHg 39%
    12:00 +26°C° 0 mm 1 mps 735 mmHg 37%
    13:00 +28°C° 0 mm 1 mps 735 mmHg 35%
    14:00 +27°C° 0 mm 1 mps 735 mmHg 36%
    15:00 +27°C° 0 mm 1 mps 735 mmHg 37%
    16:00 +27°C° 0 mm 2 mps 734 mmHg 37%
    17:00 +25°C° 0 mm 1 mps 734 mmHg 45%
    18:00 +24°C° 0 mm 1 mps 734 mmHg 52%
    19:00 +22°C° 0 mm 1 mps 733 mmHg 60%
    20:00 +20°C° 0 mm 1 mps 733 mmHg 66%
    21:00 +18°C° 0 mm 1 mps 733 mmHg 72%
    22:00 +15°C° 0 mm 0 mps 733 mmHg 77%
    23:00 +15°C° 0 mm 1 mps 732 mmHg 79%

    24 May, Thursday

    Time Temperature Precipitation Wind Pressure Humidity
    00:00 +15°C° 0 mm 1 mps 732 mmHg 80%
    01:00 +14°C° 0 mm 1 mps 732 mmHg 81%
    02:00 +14°C° 0 mm 1 mps 732 mmHg 82%
    03:00 +14°C° 0 mm 1 mps 732 mmHg 82%
    04:00 +13°C° 0 mm 1 mps 732 mmHg 82%
    05:00 +15°C° 0 mm 1 mps 732 mmHg 75%
    06:00 +18°C° 0 mm 1 mps 732 mmHg 68%
    07:00 +20°C° 0 mm 1 mps 732 mmHg 61%
    08:00 +21°C° 0 mm 2 mps 732 mmHg 54%
    09:00 +24°C° 0 mm 2 mps 732 mmHg 48%
    10:00 +25°C° 0 mm 3 mps 731 mmHg 42%
    11:00 +26°C° 0 mm 3 mps 731 mmHg 41%
    12:00 +26°C° 0 mm 3 mps 731 mmHg 40%
    13:00 +27°C° 0 mm 4 mps 730 mmHg 39%
    14:00 +27°C° 0 mm 3 mps 730 mmHg 39%
    15:00 +27°C° 0 mm 3 mps 730 mmHg 40%
    16:00 +26°C° 0 mm 3 mps 729 mmHg 41%
    17:00 +25°C° 0 mm 3 mps 729 mmHg 46%
    18:00 +24°C° 0 mm 2 mps 729 mmHg 52%
    19:00 +23°C° 0 mm 1 mps 728 mmHg 58%
    20:00 +21°C° 0 mm 1 mps 728 mmHg 62%
    21:00 +19°C° 0 mm 1 mps 728 mmHg 65%
    22:00 +16°C° 0 mm 1 mps 728 mmHg 69%
    23:00 +16°C° 0 mm 1 mps 728 mmHg 70%

    25 May, Friday

    Time Temperature Precipitation Wind Pressure Humidity
    00:00 +16°C° 0 mm 1 mps 728 mmHg 70%
    01:00 +15°C° 0 mm 1 mps 728 mmHg 71%
    02:00 +15°C° 0 mm 1 mps 728 mmHg 72%
    03:00 +14°C° 0 mm 1 mps 728 mmHg 73%
    04:00 +14°C° 0 mm 1 mps 728 mmHg 74%
    05:00 +16°C° 0 mm 1 mps 728 mmHg 69%
    06:00 +19°C° 0 mm 1 mps 728 mmHg 64%
    07:00 +21°C° 0 mm 1 mps 728 mmHg 60%
    08:00 +22°C° 0.1 mm 1 mps 728 mmHg 54%
    09:00 +24°C° 0.1 mm 2 mps 728 mmHg 49%
    10:00 +26°C° 0.1 mm 2 mps 728 mmHg 44%
    11:00 +27°C° 0 mm 2 mps 728 mmHg 41%
    12:00 +27°C° 0 mm 3 mps 727 mmHg 37%
    13:00 +28°C° 0 mm 3 mps 727 mmHg 34%
    14:00 +28°C° 0 mm 3 mps 727 mmHg 35%
    15:00 +28°C° 0 mm 3 mps 726 mmHg 37%
    16:00 +28°C° 0 mm 3 mps 726 mmHg 38%
    17:00 +26°C° 0 mm 3 mps 726 mmHg 44%
    18:00 +25°C° 0 mm 2 mps 725 mmHg 50%
    19:00 +24°C° 0 mm 2 mps 725 mmHg 57%
    20:00 +21°C° 0.3 mm 2 mps 725 mmHg 62%
    21:00 +19°C° 0.3 mm 2 mps 724 mmHg 68%
    22:00 +17°C° 0.3 mm 2 mps 724 mmHg 74%
    23:00 +16°C° 0.6 mm 2 mps 724 mmHg 80%
    Show more